Weather History for Quincy Muni, Quincy, FL, FL

Change the Weather History Date:

Saturday, March 15, 2014

  Actual Average (KTLH) Record (KTLH)
Temperature  
Mean Temperature 56 °F 60 °F  
Max Temperature 75 °F 74 °F 90 °F (1967)
Min Temperature 37 °F 47 °F 25 °F (1993)
Degree Days  
Heating Degree Days 9    
Month to date heating degree days  
Since 1 July heating degree days  
Cooling Degree Days 0    
Month to date cooling degree days  
Year to date cooling degree days  
Growing Degree Days 6 (Base 50)    
Moisture  
Dew Point 44 °F    
Average Humidity 69    
Maximum Humidity 93    
Minimum Humidity 41    
Precipitation  
Precipitation 0.00 in 0.21 in 3.02 in (1902)
Month to date precipitation 3.16  
Year to date precipitation 12.35  
Sea Level Pressure  
Sea Level Pressure 30.12 in    
Wind  
Wind Speed 1 mph (SSE)    
Max Wind Speed 12 mph    
Max Gust Speed -    
Visibility 10 miles    
Events      
T = Trace of Precipitation, MM = Missing Value Source: NWS Daily Summary

Daily Weather History Graph

Daily Weather History Graph

Search for Another Location

Airport:

Trip Planner

Search our weather history database for the weather conditions in past years. The results will help you decide how hot, cold, wet, or windy it might be!

Date:

Astronomy

Mar. 15, 2014 Rise Set
Actual Time 7:48 AM EDT 7:46 PM EDT
Civil Twilight 7:24 AM EDT 8:10 PM EDT
Nautical Twilight 6:56 AM EDT 8:38 PM EDT
Astronomical Twilight 6:28 AM EDT 9:06 PM EDT
Moon 7:05 PM EDT (3/15) 6:57 AM EDT (3/15)
Length of Visible Light 12h 46m
Length of Day
11h 58m
Waxing Gibbous, 99% of the Moon is Illuminated
Mar 15
Waxing Gibbous
Mar 16
Full
Mar 23
Last Quarter
Mar 30
New
Apr 7
First Quarter

Hourly Weather History & Observations

Time (EDT) Temp. Windchill Dew Point Humidity Pressure Visibility Wind Dir Wind Speed Gust Speed Precip Events Conditions
12:15 AM 42.8 °F - 35.6 °F 76% 30.20 in 10.0 mi Calm Calm - N/A   Clear
12:35 AM 42.8 °F - 35.6 °F 76% 30.20 in 10.0 mi Calm Calm - N/A   Clear
12:55 AM 41.0 °F - 37.4 °F 87% 30.19 in 10.0 mi Calm Calm - N/A   Clear
1:15 AM 41.0 °F - 35.6 °F 81% 30.20 in 10.0 mi Calm Calm - N/A   Clear
1:35 AM 41.0 °F - 35.6 °F 81% 30.19 in 10.0 mi Calm Calm - N/A   Clear
1:55 AM 39.2 °F - 35.6 °F 87% 30.19 in 10.0 mi Calm Calm - N/A   Clear
2:15 AM 39.2 °F - 35.6 °F 87% 30.19 in 10.0 mi Calm Calm - N/A   Clear
2:35 AM 39.2 °F - 35.6 °F 87% 30.19 in 10.0 mi Calm Calm - N/A   Clear
2:55 AM 39.2 °F - 35.6 °F 87% 30.18 in 10.0 mi Calm Calm - N/A   Clear
3:15 AM 39.2 °F - 35.6 °F 87% 30.17 in 10.0 mi Calm Calm - N/A   Clear
3:35 AM 39.2 °F - 35.6 °F 87% 30.15 in 10.0 mi Calm Calm - N/A   Clear
3:55 AM 37.4 °F - 35.6 °F 93% 30.15 in 10.0 mi Calm Calm - N/A   Clear
4:15 AM 37.4 °F - 35.6 °F 93% 30.15 in 10.0 mi Calm Calm - N/A   Clear
4:35 AM 37.4 °F - 35.6 °F 93% 30.15 in 10.0 mi Calm Calm - N/A   Partly Cloudy
4:55 AM 37.4 °F - 35.6 °F 93% 30.15 in 7.0 mi Calm Calm - N/A   Clear
5:15 AM 39.2 °F 34.2 °F 37.4 °F 93% 30.15 in 8.0 mi NW 6.9 mph - N/A   Clear
5:35 AM 39.2 °F - 37.4 °F 93% 30.15 in 10.0 mi Calm Calm - N/A   Clear
5:55 AM 39.2 °F - 37.4 °F 93% 30.15 in 9.0 mi Calm Calm - N/A   Clear
6:15 AM 39.2 °F - 37.4 °F 93% 30.15 in 8.0 mi Calm Calm - N/A   Clear
6:35 AM 39.2 °F - 35.6 °F 87% 30.16 in 10.0 mi Calm Calm - N/A   Clear
6:55 AM 39.2 °F - 37.4 °F 93% 30.16 in 8.0 mi Calm Calm - N/A   Clear
7:15 AM 39.2 °F 35.9 °F 37.4 °F 93% 30.17 in 9.0 mi ESE 4.6 mph - N/A   Clear
7:35 AM 39.2 °F - 37.4 °F 93% 30.17 in 8.0 mi Calm Calm - N/A   Clear
7:55 AM 39.2 °F - 37.4 °F 93% 30.18 in 7.0 mi Calm Calm - N/A   Partly Cloudy
8:15 AM 39.2 °F - 37.4 °F 93% 30.19 in 7.0 mi Calm Calm - N/A   Clear
8:35 AM 41.0 °F - 39.2 °F 93% 30.20 in 8.0 mi Calm Calm - N/A   Scattered Clouds
8:55 AM 44.6 °F - 41.0 °F 87% 30.19 in 8.0 mi Calm Calm - N/A   Mostly Cloudy
9:15 AM 46.4 °F - 41.0 °F 81% 30.20 in 8.0 mi Calm Calm - N/A   Partly Cloudy
9:35 AM 48.2 °F - 41.0 °F 76% 30.21 in 9.0 mi Calm Calm - N/A   Clear
9:55 AM 53.6 °F - 44.6 °F 72% 30.21 in 9.0 mi Calm Calm - N/A   Clear
10:15 AM 55.4 °F - 44.6 °F 67% 30.20 in 10.0 mi Calm Calm - N/A   Clear
10:35 AM 57.2 °F - 46.4 °F 67% 30.20 in 10.0 mi Calm Calm - N/A   Clear
10:55 AM 60.8 °F - 48.2 °F 63% 30.20 in 10.0 mi Calm Calm - N/A   Clear
11:15 AM 62.6 °F - 48.2 °F 59% 30.19 in 10.0 mi Calm Calm - N/A   Clear
11:35 AM 66.2 °F - 50.0 °F 56% 30.19 in 10.0 mi SSE 5.8 mph - N/A   Clear
11:55 AM 66.2 °F - 50.0 °F 56% 30.18 in 10.0 mi Calm Calm - N/A   Clear
12:15 PM 68.0 °F - 51.8 °F 56% 30.17 in 10.0 mi Calm Calm - N/A   Clear
12:35 PM 68.0 °F - 50.0 °F 52% 30.16 in 10.0 mi Calm Calm - N/A   Clear
12:55 PM 71.6 °F - 51.8 °F 50% 30.15 in 10.0 mi Calm Calm - N/A   Clear
1:15 PM 71.6 °F - 51.8 °F 50% 30.14 in 10.0 mi SE 5.8 mph - N/A   Clear
1:35 PM 71.6 °F - 51.8 °F 50% 30.13 in 10.0 mi South 6.9 mph - N/A   Clear
1:55 PM 73.4 °F - 50.0 °F 44% 30.12 in 10.0 mi ESE 4.6 mph - N/A   Partly Cloudy
2:15 PM 71.6 °F - 50.0 °F 46% 30.11 in 10.0 mi Calm Calm - N/A   Scattered Clouds
2:35 PM 75.2 °F - 50.0 °F 41% 30.10 in 10.0 mi SW 8.1 mph - N/A   Scattered Clouds
2:55 PM 71.6 °F - 50.0 °F 46% 30.09 in 10.0 mi Calm Calm - N/A   Scattered Clouds
3:15 PM 73.4 °F - 51.8 °F 47% 30.08 in 10.0 mi Calm Calm - N/A   Mostly Cloudy
3:35 PM 73.4 °F - 50.0 °F 44% 30.06 in 10.0 mi Calm Calm - N/A   Overcast
3:55 PM 73.4 °F - 50.0 °F 44% 30.05 in 10.0 mi Calm Calm - N/A   Overcast
4:15 PM 73.4 °F - 50.0 °F 44% 30.05 in 10.0 mi Calm Calm - N/A   Overcast
4:35 PM 73.4 °F - 51.8 °F 47% 30.05 in 10.0 mi South 5.8 mph - N/A   Overcast
4:55 PM 73.4 °F - 51.8 °F 47% 30.04 in 10.0 mi SSE 5.8 mph - N/A   Mostly Cloudy
5:15 PM 73.4 °F - 51.8 °F 47% 30.04 in 10.0 mi South 8.1 mph - N/A   Mostly Cloudy
5:35 PM 73.4 °F - 51.8 °F 47% 30.03 in 10.0 mi Calm Calm - N/A   Overcast
5:55 PM 71.6 °F - 50.0 °F 46% 30.04 in 10.0 mi SSE 10.4 mph - N/A   Overcast
6:15 PM 69.8 °F - 50.0 °F 49% 30.04 in 10.0 mi SSE 9.2 mph - N/A   Mostly Cloudy
6:35 PM 68.0 °F - 48.2 °F 49% 30.04 in 10.0 mi South 11.5 mph - N/A   Scattered Clouds
6:55 PM 68.0 °F - 48.2 °F 49% 30.05 in 10.0 mi SSE 8.1 mph - N/A   Clear
7:15 PM 66.2 °F - 46.4 °F 49% 30.05 in 10.0 mi SE 6.9 mph - N/A   Clear
7:35 PM 66.2 °F - 46.4 °F 49% 30.06 in 10.0 mi Calm Calm - N/A   Mostly Cloudy
7:55 PM 64.4 °F - 46.4 °F 52% 30.06 in 10.0 mi SE 4.6 mph - N/A   Mostly Cloudy
8:15 PM 64.4 °F - 48.2 °F 56% 30.05 in 10.0 mi Calm Calm - N/A   Mostly Cloudy
8:35 PM 62.6 °F - 48.2 °F 59% 30.05 in 10.0 mi Calm Calm - N/A   Mostly Cloudy
8:55 PM 62.6 °F - 48.2 °F 59% 30.05 in 10.0 mi Calm Calm - N/A   Mostly Cloudy
9:15 PM 60.8 °F - 48.2 °F 63% 30.05 in 10.0 mi Calm Calm - N/A   Overcast
9:35 PM 59.0 °F - 48.2 °F 67% 30.05 in 10.0 mi Calm Calm - N/A   Mostly Cloudy
9:55 PM 59.0 °F - 48.2 °F 67% 30.05 in 10.0 mi Calm Calm - N/A   Scattered Clouds
10:15 PM 57.2 °F - 50.0 °F 77% 30.05 in 10.0 mi Calm Calm - N/A   Clear
10:35 PM 57.2 °F - 50.0 °F 77% 30.05 in 10.0 mi Calm Calm - N/A   Partly Cloudy
10:55 PM 55.4 °F - 50.0 °F 82% 30.06 in 10.0 mi Calm Calm - N/A   Partly Cloudy
11:15 PM 55.4 °F - 48.2 °F 77% 30.05 in 10.0 mi Calm Calm - N/A   Partly Cloudy
11:35 PM 55.4 °F - 50.0 °F 82% 30.05 in 10.0 mi Calm Calm - N/A   Scattered Clouds
11:55 PM 53.6 °F - 50.0 °F 88% 30.04 in 10.0 mi Calm Calm - N/A   Overcast